マクノート彗星

508P/McNaught (2018)

English version
Home page
Updated on August 27, 2025

---------------------------------------------------------------------

・ プロフィール

・ 軌道要素

                    Epoch = 2018 Oct.  9.0 TT
     T = 2018 Oct. 12.63151 TT        Peri. = 338.92465
     e = 0.5703767                    Node  = 268.79586 2000.0
     q = 1.5334460 AU                 Incl. =  31.76849
       a =  3.5692805 AU   n = 0.14616152   P =   6.74 years

・ 光度変化

        m1 = 15.7 + 5 logΔ + 15.0 log r

---------------------------------------------------------------------

軌道要素は、CBET 5592に掲載されたものです。
光度グラフはComet for Windowsで作成したものです。

---------------------------------------------------------------------

Copyright(C) Seiichi Yoshida (comet@aerith.net). All rights reserved.